Погода в Серьгине

Россия / Пермский край     58°30′48″N   54°16′19″E
темп.,
°C
ветер,
м/с
пор.,
м/с
влажн.,
%
обл.,
%
осадки,
мм/ч
давл.,
гПа
погр.,
м
24 января, вс
вс2423:00−17юв4996100 1.1 1026456
02:00−15ююв4994100 0.3 1025433
05:00−15ююв4994100 0.6 1024423
08:00−14ююв4994100 0.3 1022412
11:00−13ю4994100 1.0 1021417
14:00−10ю3694100 0.8 1020329
17:00−8ююз2596100 1.0 1020234
20:00−10ююз1296100 0.1 102121
25 января, пн
пн2523:00−8юз1296100 0.1 102221
02:00−6зюз1298100 0.0 102237
05:00+1ююз2799100 0.3 1022285
08:00+1ююз3799100 0.3 1022246
11:00+1юз3999100 0.6 1023349
14:00+2юз310100100 0.4 1022437
17:00+1юз31099100 1.1 1023392
20:00+1юз31099100 0.9 1023413
26 января, вт
вт2623:00+1юз41097100 1.3 1024382
02:00−1юз51094100 0.1 1024417
05:00−3юз41091100 0.1 1025433
08:00−4юз4894100 0.1 1025486
11:00−3юз4991100 0.1 1025664
14:00−3юз4989100 0.1 1025751
17:00−3ююз3892100 0.1 1023634
20:00−3ююз2896100 0.1 1023443
27 января, ср
ср2723:00−3ююз299599 0.2 1022553
02:00−3ююз3895100 0.1 1022356
05:00−3ююз3893100 0.1 1021494
08:00−4ююз3795100 0.1 1021423
11:00−6ююз399498 0.2 1021376
14:00−4ююз369193 0.0 1022420
17:00−4ю269694 0.1 1022278
20:00−3ю389599 0.1 1022401
28 января, чт
чт2823:00−4ююз4894100 0.1 1022582
02:00−3ю4993100 0.0 1021544
05:00−6ю4993100 0.1 1021410
08:00−8ю41091100 0.0 1020356
11:00−7ю41190100 0.0 1020372
14:00−5ю41086100 0.0 1019434
17:00−5ю41287100 0.0 1018457
20:00−7ю41389100 0.0 1017458